Hurricane Symbol View the latest observations near Atlantic Tropical Depression Alberto.

Station ELXC1 - Caspian Weather Station, Elkhorn Slough Reserve, CA Image indicating link to RSS feed of recent meteorological observations for station ELXC1


Conditions at ELXC1 as of
(8:45 am PDT)
1545 GMT on 06/20/2024:
     

Click on the graph icon in the table below to see a time series plot of the last five days of that observation.

5-day plot - Wind Direction Wind Direction (WDIR): S ( 180 deg true )
5-day plot - Wind Speed Wind Speed (WSPD): 2.9 kts
5-day plot - Atmospheric Pressure Atmospheric Pressure (PRES):29.91 in
5-day plot - Air Temperature Air Temperature (ATMP): 53.4 °F
5-day plot - Dew Point Dew Point (DEWP): 50.4 °F
5-day plot - Wind Chill Wind Chill (CHILL): 53.2 °F
5-day plot -  Wind Speed, Wind Gust and Atmospheric Pressure Combined plot of Wind Speed, Gust, and Air Pressure
Previous observations
TIME
(PDT)
5-day plot - Wind Direction
WDIR
 
5-day plot - Wind Speed
WSPD
kts
5-day plot - Wind Gust
GST
kts
5-day plot - Wave Height
WVHT
ft
5-day plot - Dominant Wave Period
DPD
sec
5-day plot - Average Wave Period
APD
sec
5-day plot - Mean Wave Direction
MWD
 
5-day plot - Atmospheric Pressure
PRES
in
5-day plot - Pressure Tendency
PTDY
in
5-day plot - Air Temperature
ATMP
°F
5-day plot - Water Temperature
WTMP
°F
5-day plot - Dew Point
DEWP
°F
5-day plot - Salinity
SAL
psu
5-day plot - Visibility
VIS
nmi
5-day plot - Tide (above MLLW)
TIDE
ft
2024-06-20 08:30 am S 4.1-----29.91- 53.1- 50.5---
2024-06-20 08:15 amSSW 2.9-----29.91- 52.9- 50.9---
2024-06-20 08:00 am S 4.1-----29.88+0.00 52.7- 51.1---
2024-06-20 07:45 am SW 2.9-----29.88- 52.5- 51.1---
2024-06-20 07:30 amSSW 2.9-----29.88- 52.3- 50.9---
2024-06-20 07:15 am- 0.0-----29.88- 52.2- 51.1---
2024-06-20 07:00 amNNW 1.0-----29.88+0.00 52.0- 50.9---
2024-06-20 06:45 amNNW 1.9-----29.88- 51.8- 50.7---
2024-06-20 06:30 am NW 2.9-----29.88- 51.8- 50.7---
2024-06-20 06:15 am NW 4.1-----29.88- 52.0- 50.9---
2024-06-20 06:00 amNNW 4.1-----29.88+0.00 52.2- 51.1---
2024-06-20 05:45 amENE 1.0-----29.88- 52.0- 50.9---
2024-06-20 05:30 amENE 1.9-----29.88- 52.2- 51.1---
2024-06-20 05:15 amENE 1.0-----29.88- 52.2- 51.1---
2024-06-20 05:00 am E 1.9-----29.88+0.00 52.3- 51.3---
2024-06-20 04:45 am E 1.9-----29.88- 52.3- 51.3---
2024-06-20 04:30 am E 1.9-----29.88- 52.3- 51.3---
2024-06-20 04:15 am E 2.9-----29.85- 52.3- 51.3---
2024-06-20 04:00 amESE 2.9-----29.88-0.03 52.3- 50.9---
2024-06-20 03:45 amESE 2.9-----29.88- 52.3- 50.9---
2024-06-20 03:30 amESE 2.9-----29.88- 52.5- 51.1---
2024-06-20 03:15 amESE 2.9-----29.88- 52.7- 51.3---
2024-06-20 03:00 amENE 1.9-----29.88-0.03 52.7- 51.1---
2024-06-20 02:45 amENE 1.9-----29.88- 52.7- 51.1---
2024-06-20 02:30 am E 1.9-----29.88- 52.9- 51.3---
2024-06-20 02:15 am E 1.9-----29.88- 52.9- 51.3---
2024-06-20 02:00 amESE 1.9-----29.88-0.03 52.9- 51.3---
2024-06-20 01:45 amESE 2.9-----29.91- 52.7- 50.7---
2024-06-20 01:30 amSSE 2.9-----29.91- 52.7- 50.7---
2024-06-20 01:15 amSSE 4.1-----29.91- 52.5- 50.5---
2024-06-20 01:00 am S 4.1-----29.91+0.00 52.3- 50.2---
2024-06-20 12:45 am S 5.1-----29.91- 52.2- 50.0---
2024-06-20 12:30 am S 6.0-----29.91- 52.3- 50.2---
2024-06-20 12:15 am S 6.0-----29.91- 52.3- 50.2---
2024-06-20 12:00 amSSE 7.0-----29.91+0.00 52.5- 50.5---
2024-06-19 11:45 pm S 6.0-----29.91- 53.1- 51.1---
2024-06-19 11:30 pmSSE 7.0-----29.91- 53.2- 51.3---
2024-06-19 11:15 pmSSE 6.0-----29.91- 53.2- 51.3---
2024-06-19 11:00 pmSSE 7.0-----29.91+0.03 52.9- 51.3---
2024-06-19 10:45 pmSSE 7.0-----29.91- 52.3- 50.7---
2024-06-19 10:30 pmSSE 7.0-----29.91- 52.2- 50.5---
2024-06-19 10:15 pmSSE 6.0-----29.91- 52.2- 50.5---
2024-06-19 10:00 pm S 7.0-----29.91+0.03 52.2- 50.5---
2024-06-19 09:45 pm S 7.0-----29.91- 52.2- 50.5---
2024-06-19 09:30 pm S 6.0-----29.91- 52.2- 50.5---
2024-06-19 09:15 pm S 6.0-----29.91- 52.3- 50.7---
2024-06-19 09:00 pm S 6.0-----29.91+0.03 52.5- 50.5---
2024-06-19 08:45 pm S 6.0-----29.88- 52.9- 50.7---
2024-06-19 08:30 pmSSW 7.0-----29.91- 53.4- 51.3---
2024-06-19 08:15 pmSSW 8.0-----29.88- 53.6- 51.4---
2024-06-19 08:00 pmSSW 8.0-----29.88-0.03 53.6- 51.1---
2024-06-19 07:45 pm SW 8.0-----29.88- 53.6- 51.1---
2024-06-19 07:30 pmSSW 8.0-----29.88- 54.0- 51.1---
2024-06-19 07:15 pm SW 8.0-----29.88- 54.1- 51.3---
2024-06-19 07:00 pm SW 8.0-----29.88-0.03 54.3- 51.3---
2024-06-19 06:45 pm SW 7.0-----29.88- 54.5- 51.1---
2024-06-19 06:30 pm SW 5.1-----29.88- 54.7- 50.9---
2024-06-19 06:15 pmWSW 6.0-----29.88- 54.9- 51.1---
2024-06-19 06:00 pmWSW 7.0-----29.88-0.03 55.0- 51.3---
2024-06-19 05:45 pmWSW 7.0-----29.91- 55.2- 51.1---
2024-06-19 05:30 pmWSW 7.0-----29.91- 55.8- 51.4---
2024-06-19 05:15 pmWSW 6.0-----29.91- 56.1- 51.8---
2024-06-19 05:00 pm W 6.0-----29.91+0.00 56.8- 52.2---
2024-06-19 04:45 pm W 7.0-----29.91- 56.8- 52.2---
2024-06-19 04:30 pm W 8.0-----29.91- 57.4- 52.3---
2024-06-19 04:15 pm W 8.0-----29.91- 57.6- 52.5---
2024-06-19 04:00 pm W 8.9-----29.91+0.00 57.6- 52.5---
2024-06-19 03:45 pm W 8.9-----29.91- 57.7- 52.3---
2024-06-19 03:30 pmWNW 8.9-----29.91- 57.7- 52.7---
2024-06-19 03:15 pmWNW 8.9-----29.91- 59.0- 52.9---
2024-06-19 03:00 pm W 8.0-----29.91+0.00 59.0- 53.2---
2024-06-19 02:45 pm W 8.0-----29.91- 59.4- 52.9---
2024-06-19 02:30 pm W 8.9-----29.91- 59.4- 53.2---
2024-06-19 02:15 pmWNW 8.9-----29.91- 58.8- 52.7---
2024-06-19 02:00 pmWNW 8.9-----29.91+0.00 59.2- 52.5---
2024-06-19 01:45 pmWNW 8.9-----29.91- 59.4- 52.9---
2024-06-19 01:30 pmWNW 8.9-----29.91- 59.4- 53.2---
2024-06-19 01:15 pmWNW 8.0-----29.91- 59.4- 52.9---
2024-06-19 01:00 pm W 8.9-----29.91+0.00 59.7- 52.9---
2024-06-19 12:45 pm W 7.0-----29.91- 60.3- 52.7---
2024-06-19 12:30 pmWNW 7.0-----29.91- 59.2- 52.7---
2024-06-19 12:15 pmWNW 8.0-----29.91- 58.5- 51.8---
2024-06-19 12:00 pmWNW 7.0-----29.91+0.00 59.4- 52.3---
2024-06-19 11:45 amWNW 7.0-----29.91- 59.2- 52.5---
2024-06-19 11:30 amWNW 7.0-----29.91- 59.7- 52.3---
2024-06-19 11:15 amWNW 5.1-----29.91- 59.7- 52.7---
2024-06-19 11:00 am NW 5.1-----29.91+0.03 59.2- 52.7---
2024-06-19 10:45 amWNW 5.1-----29.91- 59.0- 52.5---
2024-06-19 10:30 amWNW 5.1-----29.91- 58.8- 52.3---
2024-06-19 10:15 amWNW 5.1-----29.91- 59.2- 52.5---
2024-06-19 10:00 am W 5.1-----29.91+0.03 58.8- 52.3---
2024-06-19 09:45 am W 4.1-----29.91- 59.5- 51.8---
2024-06-19 09:30 am SW 1.9-----29.91- 59.7- 51.6---
2024-06-19 09:15 amSSW 4.1-----29.91- 59.2- 51.8---
2024-06-19 09:00 am S 2.9-----29.91+0.06 58.3- 52.0---